Погода в Чаттануге

США     35°02′44″N   85°18′33″W
темп.,
°C
ветер,
м/с
пор.,
м/с
влажн.,
%
обл.,
%
осадки,
мм/ч
давл.,
гПа
погр.,
м
16 июня, ср
ср1623:00+19ссз24710 0.0 101698
02:00+17сз11820 0.0 101618
05:00+15ссз11800 0.0 101614
08:00+18с12735 0.0 101798
11:00+25св36420 0.0 10171436
14:00+28св363018 0.0 10162570
17:00+29ссв342910 0.0 10142873
20:00+23ссз37550 0.0 1015214
17 июня, чт
чт1723:00+18сз12730 0.0 101725
02:00+16сз11810 0.0 101712
05:00+15с12880 0.0 101721
08:00+17ссв25772 0.0 1018170
11:00+25св23440 0.0 1018790
14:00+29св23320 0.0 10171941
17:00+30в34315 0.0 10152298
20:00+24в22620 0.0 101638
18 июня, пт
пт1823:00+19ссз11680 0.0 101711
02:00+17зюз00755 0.0 101711
05:00+16всв11811 0.0 101811
08:00+18всв01730 0.0 101863
11:00+27ююв124393 0.0 1018570
14:00+32ююз23311 0.0 10162131
17:00+33юз34292 0.0 10142456
20:00+26з2360100 0.0 101568
19 июня, сб
сб1923:00+22зюз1168100 0.0 101611
02:00+21юз3108091 0.0 1016246
05:00+19ююз1196100 0.0 101623
08:00+21ю2390100 0.0 1017139
11:00+25ююз2367100 0.0 1017801
14:00+29ююв3353100 0.0 10151606
17:00+28ю5560100 0.1 10141252
20:00+23ю4985100 0.3 1015690
20 июня, вс
вс2023:00+21ююв31090100 0.1 1015791
02:00+20ююв31090100 0.1 1014977
05:00+20юв2891100 0.0 1012833
08:00+19вюв3999100 5.9 1011738
11:00+20в51298100 5.9 1009680
14:00+20св51098100 20.0 1007620
17:00+21зсз2495100 0.2 1008372
20:00+21зюз1193100 0.3 100980